User: anonymous   Login
Location: Antioch Church
(34.9543°N, 88.5145°W)
Time: 06:49:08
(UTC+00:00)
Language:

Cosmos 1602 - Orbit

View from above orbital plane
View from above orbital plane
View from above satellite
View from above satellite

Ground track
Ground track

The orbit data is extracted from the following two-line orbital elements,

1 15331U 84105A   20049.66412150 +.00000173 +00000-0 +77803-5 0  9992
2 15331 082.5352 086.7149 0015636 149.2338 210.9814 15.13812229929274
Epoch (UTC): 18 February 2020 15:56:20
Eccentricity: 0.0015636
inclination: 82.5352°
perigee height: 514 km
apogee height: 535 km
right ascension of ascending node: 86.7149°
argument of perigee: 149.2338°
revolutions per day: 15.13812229
mean anomaly at epoch: 210.9814°
orbit number at epoch: 92927

The dashed part of the orbit path shows where the satellite is in the earth's shadow,  

DLR